Weather History for Killeen/Ft Hood, TX

Change the Weather History Date:

Friday, July 5, 2013

  Actual Average Record
Temperature  
Mean Temperature 86 °F -  
Max Temperature 98 °F 90 °F 102 °F (2011)
Min Temperature 73 °F 73 °F 71 °F (2014)
Cooling Degree Days 20    
Growing Degree Days 36 (Base 50)    
Moisture  
Dew Point 60 °F    
Average Humidity 44    
Maximum Humidity 73    
Minimum Humidity 23    
Precipitation  
Precipitation 0.00 in - - ()
Sea Level Pressure  
Sea Level Pressure 30.00 in    
Wind  
Wind Speed 7 mph (SE)    
Max Wind Speed 14 mph    
Max Gust Speed 20 mph    
Visibility 10 miles    
Events      
Averages and records for this station are not official NWS values.
T = Trace of Precipitation, MM = Missing Value Source: NWS Daily Summary

Daily Weather History Graph

Daily Weather History Graph

Search for Another Location

Airport:

Trip Planner

Search our weather history database for the weather conditions in past years. The results will help you decide how hot, cold, wet, or windy it might be!

Date:

Astronomy

Jul. 05, 2013 Rise Set
Actual Time 6:32 AM CDT 8:38 PM CDT
Civil Twilight 6:04 AM CDT 9:06 PM CDT
Nautical Twilight 5:31 AM CDT 9:39 PM CDT
Astronomical Twilight 4:54 AM CDT 10:15 PM CDT
Moon 4:29 AM CDT (7/5) 6:37 PM CDT (7/5)
Length of Visible Light 15h 01m
Length of Day
14h 06m
Waning Crescent, 6% of the Moon is Illuminated
Jul 5
Waning Crescent
Jul 8
New
Jul 15
First Quarter
Jul 22
Full
Jul 29
Last Quarter

Hourly Weather History & Observations

Time (CDT) Temp. Heat Index Dew Point Humidity Pressure Visibility Wind Dir Wind Speed Gust Speed Precip Events Conditions
12:56 AM 78.1 °F - 62.1 °F 58% 30.05 in 10.0 mi ESE 5.8 mph - N/A   Clear
1:56 AM 78.1 °F - 63.0 °F 60% 30.05 in 10.0 mi SE 6.9 mph - N/A   Clear
2:56 AM 77.0 °F - 64.9 °F 66% 30.04 in 10.0 mi SE 6.9 mph - N/A   Clear
3:56 AM 75.9 °F - 66.0 °F 71% 30.03 in 10.0 mi SSE 6.9 mph - N/A   Clear
4:56 AM 75.0 °F - 64.9 °F 71% 30.03 in 10.0 mi SSE 4.6 mph - N/A   Clear
5:56 AM 75.0 °F - 64.9 °F 71% 30.04 in 10.0 mi South 5.8 mph - N/A   Clear
6:56 AM 73.9 °F - 64.9 °F 73% 30.04 in 10.0 mi South 4.6 mph - N/A   Clear
7:56 AM 77.0 °F - 64.9 °F 66% 30.05 in 10.0 mi South 5.8 mph - N/A   Clear
8:56 AM 81.0 °F 82.7 °F 64.9 °F 58% 30.07 in 10.0 mi South 8.1 mph - N/A   Clear
9:56 AM 86.0 °F 86.1 °F 61.0 °F 43% 30.06 in 10.0 mi SSE 10.4 mph - N/A   Clear
10:56 AM 90.0 °F 88.1 °F 55.9 °F 31% 30.05 in 10.0 mi SSE 8.1 mph - N/A   Clear
11:56 AM 93.0 °F 91.4 °F 55.9 °F 29% 30.04 in 10.0 mi ESE 5.8 mph - N/A   Clear
12:56 PM 95.0 °F 93.0 °F 55.0 °F 26% 30.02 in 10.0 mi Variable 6.9 mph - N/A   Clear
1:56 PM 96.1 °F 94.1 °F 55.0 °F 25% 29.95 in 10.0 mi Variable 6.9 mph 16.1 mph N/A   Clear
2:56 PM 97.0 °F 95.0 °F 55.0 °F 24% 29.99 in 10.0 mi ESE 13.8 mph 17.3 mph N/A   Clear
3:56 PM 98.1 °F 96.1 °F 54.0 °F 23% 29.97 in 10.0 mi SE 6.9 mph - N/A   Clear
4:56 PM 98.1 °F 96.4 °F 55.0 °F 24% 29.94 in 10.0 mi ESE 8.1 mph - N/A   Scattered Clouds
5:56 PM 95.0 °F 93.4 °F 55.9 °F 27% 29.93 in 10.0 mi East 11.5 mph 19.6 mph N/A   Clear
6:56 PM 95.0 °F 94.0 °F 57.9 °F 29% 29.93 in 10.0 mi ESE 8.1 mph - N/A   Clear
7:56 PM 93.0 °F 91.7 °F 57.0 °F 30% 29.93 in 10.0 mi East 10.4 mph 16.1 mph N/A   Clear
8:56 PM 90.0 °F 88.6 °F 57.0 °F 33% 29.94 in 10.0 mi East 5.8 mph - N/A   Clear
9:56 PM 87.1 °F 86.1 °F 57.9 °F 37% 29.96 in 10.0 mi East 8.1 mph - N/A   Clear
10:56 PM 86.0 °F 85.4 °F 59.0 °F 40% 29.97 in 10.0 mi ESE 6.9 mph - N/A   Clear
11:56 PM 84.9 °F 84.8 °F 60.1 °F 43% 30.00 in 10.0 mi ESE 10.4 mph - N/A   Scattered Clouds